Location: Buena Vista Beach
(41.8098°N, 81.1279°W)
Time: 08:29:32
(UTC+00:00)

USA 307 - Pass Details

Date: 29 October 2020
Orbit: 569 x 579 km, 54.0° (Epoch: 23 November)

Event Time Altitude Azimuth Distance (km) Brightness Sun altitude
Rises 23:26:37 0° 312° (NW) 2,788 7.1 -12.6°
Reaches altitude 10° 23:29:01 10° 320° (NW) 1,886 6.0 -13.0°
Maximum altitude 23:33:03 39° 30° (NNE) 869 3.5 -13.8°
Enters shadow 23:35:05 24° 83° (E) 1,212 3.9 -14.1°
